Location: Home
(42.5358°N, 72.7383°W)
Time: 21:22:30
(UTC-05:00)

Vanguard 2 - Pass Details

Date: 02 December 2021
Orbit: 553 x 2936 km, 32.9° (Epoch: 20 January)

Event Time Altitude Azimuth Distance (km) Brightness Sun altitude
Rises 20:56:57 0° 258° (WSW) 5,232 12.3 -50.4°
Reaches altitude 10° 21:06:33 10° 219° (SW) 5,012 11.7 -52.0°
Maximum altitude 21:07:19 10° 216° (SW) 5,058 11.7 -52.2°
Drops below altitude 10° 21:08:08 10° 212° (SSW) 5,116 11.7 -52.3°
Enters shadow 21:16:00 - 186° (S) 6,023 11.9 -53.7°
Sets 21:20:16 0° 176° (S) 6,675 - -54.4°
